Date;H [cm]
27.04.1928;30
28.04.1928;24
29.04.1928;19
30.04.1928;13
01.05.1928;9
02.05.1928;0
03.05.1928;-7
04.05.1928;-12
05.05.1928;-15
06.05.1928;-15
07.05.1928;-24
08.05.1928;-24
09.05.1928;-23
10.05.1928;69
11.05.1928;92
12.05.1928;95
13.05.1928;93
14.05.1928;82
15.05.1928;65
16.05.1928;67
17.05.1928;69
18.05.1928;63
19.05.1928;51
20.05.1928;37
21.05.1928;21
22.05.1928;14
23.05.1928;31
24.05.1928;47
25.05.1928;43
26.05.1928;40
27.05.1928;51
28.05.1928;148
29.05.1928;139
30.05.1928;123
31.05.1928;116
01.06.1928;104
02.06.1928;84
03.06.1928;57
04.06.1928;31
05.06.1928;19
06.06.1928;14
07.06.1928;4
08.06.1928;-2
09.06.1928;-6
10.06.1928;-12
11.06.1928;-12
12.06.1928;35
13.06.1928;57
14.06.1928;47
15.06.1928;34
16.06.1928;27
17.06.1928;24
18.06.1928;19
19.06.1928;29
20.06.1928;100
21.06.1928;146
22.06.1928;153
23.06.1928;133
24.06.1928;125
25.06.1928;122
26.06.1928;117
27.06.1928;106
28.06.1928;96
29.06.1928;80
30.06.1928;60
01.07.1928;47
02.07.1928;41
03.07.1928;28
04.07.1928;23
05.07.1928;26
06.07.1928;43
07.07.1928;54
08.07.1928;53
09.07.1928;44
10.07.1928;36
11.07.1928;29
12.07.1928;23
13.07.1928;18
14.07.1928;13
15.07.1928;6
16.07.1928;-1
17.07.1928;-5
18.07.1928;-9
19.07.1928;-13
20.07.1928;-13
21.07.1928;-5
22.07.1928;8
23.07.1928;10
24.07.1928;8
25.07.1928;6
26.07.1928;6
27.07.1928;5
28.07.1928;4
29.07.1928;3
30.07.1928;111
31.07.1928;96
01.08.1928;95
02.08.1928;96
03.08.1928;79
04.08.1928;65
05.08.1928;55
06.08.1928;44
07.08.1928;36
08.08.1928;26
09.08.1928;46
10.08.1928;71
11.08.1928;66
12.08.1928;53
13.08.1928;41
14.08.1928;32
15.08.1928;26
16.08.1928;18
17.08.1928;10
18.08.1928;13
19.08.1928;35
20.08.1928;44
21.08.1928;35
22.08.1928;24
23.08.1928;22
24.08.1928;23
25.08.1928;18
26.08.1928;33
27.08.1928;36
28.08.1928;62
29.08.1928;68
30.08.1928;56
31.08.1928;101
01.09.1928;187
02.09.1928;160
03.09.1928;144
04.09.1928;158
05.09.1928;167
06.09.1928;162
07.09.1928;143
08.09.1928;122
09.09.1928;102
10.09.1928;84
11.09.1928;69
12.09.1928;54
13.09.1928;51
14.09.1928;55
15.09.1928;55
16.09.1928;62
17.09.1928;70
18.09.1928;84
19.09.1928;92
20.09.1928;93
21.09.1928;85
22.09.1928;75
23.09.1928;63
24.09.1928;76
25.09.1928;119
26.09.1928;116
27.09.1928;108
28.09.1928;117
29.09.1928;172
30.09.1928;193
01.10.1928;194
02.10.1928;186
03.10.1928;171
04.10.1928;148
05.10.1928;117
06.10.1928;95
07.10.1928;68
08.10.1928;53
09.10.1928;47
10.10.1928;49
11.10.1928;60
12.10.1928;68
13.10.1928;71
14.10.1928;64
15.10.1928;55
16.10.1928;45
17.10.1928;42
18.10.1928;33
19.10.1928;29
20.10.1928;23
21.10.1928;20
22.10.1928;19
23.10.1928;19
24.10.1928;18
25.10.1928;17
26.10.1928;15
27.10.1928;13
28.10.1928;11
29.10.1928;7
30.10.1928;4
31.10.1928;5
01.11.1928;5
02.11.1928;36
03.11.1928;67
04.11.1928;64
05.11.1928;64
06.11.1928;75
07.11.1928;80
08.11.1928;75
09.11.1928;70
10.11.1928;64
11.11.1928;57
12.11.1928;50
13.11.1928;62
14.11.1928;70
15.11.1928;68
16.11.1928;70
17.11.1928;69
18.11.1928;76
19.11.1928;70
20.11.1928;63
21.11.1928;56
22.11.1928;47
23.11.1928;36
24.11.1928;34
25.11.1928;33
26.11.1928;28
27.11.1928;31
28.11.1928;37
29.11.1928;54
30.11.1928;60
01.12.1928;59
02.12.1928;54
03.12.1928;49
04.12.1928;42
05.12.1928;34
06.12.1928;28
07.12.1928;25
08.12.1928;27
09.12.1928;51
10.12.1928;58
11.12.1928;57
12.12.1928;54
13.12.1928;51
14.12.1928;62
15.12.1928;78
16.12.1928;56
17.12.1928;50
18.12.1928;44
19.12.1928;36
20.12.1928;25
21.12.1928;13
22.12.1928;2
23.12.1928;-10
24.12.1928;-18
25.12.1928;-23
26.12.1928;-26
27.12.1928;-33
28.12.1928;-36
29.12.1928;-34
30.12.1928;-33
31.12.1928;-38
01.01.1929;21
02.01.1929;18
03.01.1929;16
04.01.1929;13
05.01.1929;11
06.01.1929;11
07.01.1929;7
08.01.1929;5
09.01.1929;11
10.01.1929;11
11.01.1929;11
12.01.1929;10
13.01.1929;10
14.01.1929;9
15.01.1929;10
16.01.1929;10
17.01.1929;9
18.01.1929;6
19.01.1929;4
20.01.1929;6
21.01.1929;3
22.01.1929;3
23.01.1929;2
24.01.1929;1
25.01.1929;4
26.01.1929;4
27.01.1929;4
28.01.1929;3
29.01.1929;3
30.01.1929;1
31.01.1929;0
01.02.1929;-4
02.02.1929;-5
03.02.1929;-5
04.02.1929;-7
05.02.1929;-8
06.02.1929;-8
07.02.1929;-8
08.02.1929;-9
09.02.1929; ---
10.02.1929; ---
11.02.1929; ---
12.02.1929;-11
13.02.1929;-9
14.02.1929;-10
15.02.1929;-10
16.02.1929;-9
17.02.1929;-8
18.02.1929;-7
19.02.1929;-9
20.02.1929;-9
21.02.1929;-10
22.02.1929;-11
23.02.1929;-9
24.02.1929;-9
25.02.1929;-8
26.02.1929;-8
27.02.1929;-6
28.02.1929;-5
01.03.1929;-7
02.03.1929;-8
03.03.1929;-10
04.03.1929;-14
05.03.1929;-14
06.03.1929;-16
07.03.1929; ---
08.03.1929; ---
09.03.1929; ---
10.03.1929; ---
11.03.1929;-25
12.03.1929;-24
13.03.1929;-10
14.03.1929;5
15.03.1929;10
16.03.1929;7
17.03.1929;11
18.03.1929;13
19.03.1929;16
20.03.1929;23
21.03.1929;35
22.03.1929;46
23.03.1929;73
24.03.1929;113
25.03.1929;122
26.03.1929;134
27.03.1929;148
28.03.1929;173
29.03.1929;193
30.03.1929;183
31.03.1929;187
01.04.1929;182
02.04.1929;173
03.04.1929;143
04.04.1929;127
05.04.1929;106
06.04.1929;103
07.04.1929;102
08.04.1929;101
09.04.1929;98
10.04.1929;66
11.04.1929;43
12.04.1929;40
13.04.1929;46
14.04.1929;68
15.04.1929;87
16.04.1929;81
17.04.1929;81
18.04.1929;80
19.04.1929;79
20.04.1929;80
21.04.1929;72
22.04.1929;68
23.04.1929;65
24.04.1929;57
25.04.1929;53
26.04.1929;49
27.04.1929;55
28.04.1929;61
29.04.1929;63
30.04.1929;60
01.05.1929;83
02.05.1929;107
03.05.1929;112
04.05.1929;101
05.05.1929;97
06.05.1929;93
07.05.1929;90
08.05.1929;86
09.05.1929;81
10.05.1929;79
11.05.1929;85
12.05.1929;93
13.05.1929;90
14.05.1929;83
15.05.1929;76
16.05.1929;71
17.05.1929;81
18.05.1929;88
19.05.1929;86
20.05.1929;122
21.05.1929;156
22.05.1929;139
23.05.1929;115
24.05.1929;107
25.05.1929;101
26.05.1929;95
27.05.1929;90
28.05.1929;84
29.05.1929;79
30.05.1929;75
31.05.1929;67
01.06.1929;78
02.06.1929;93
03.06.1929;115
04.06.1929;111
05.06.1929;94
06.06.1929;83
07.06.1929;78
08.06.1929;74
09.06.1929;71
10.06.1929;70
11.06.1929;68
12.06.1929;62
13.06.1929;54
14.06.1929;48
15.06.1929;38
16.06.1929;33
17.06.1929;25
18.06.1929;25
19.06.1929;20
20.06.1929;13
21.06.1929;8
22.06.1929;-7
23.06.1929;-4
24.06.1929;-8
25.06.1929;-10
26.06.1929;-5
27.06.1929;4
28.06.1929;7
29.06.1929;6
30.06.1929;3
01.07.1929;-6
02.07.1929;-10
03.07.1929;-13
04.07.1929;-15
05.07.1929;-8
06.07.1929;14
07.07.1929;30
08.07.1929;57
09.07.1929;66
10.07.1929;65
11.07.1929;63
12.07.1929;61
13.07.1929;56
14.07.1929;49
15.07.1929;46
16.07.1929;40
17.07.1929;34
18.07.1929;30
19.07.1929;25
20.07.1929;22
21.07.1929;21
22.07.1929;15
23.07.1929;7
24.07.1929;4
25.07.1929;5
26.07.1929;-1
27.07.1929;3
28.07.1929;7
29.07.1929;10
30.07.1929;5
31.07.1929;12
01.08.1929;26
02.08.1929;25
03.08.1929;25
04.08.1929;27
05.08.1929;19
06.08.1929;13
07.08.1929;5
08.08.1929;7
09.08.1929;6
10.08.1929;4
11.08.1929;0
12.08.1929;2
13.08.1929;3
14.08.1929;5
15.08.1929;16
16.08.1929;24
17.08.1929;23
18.08.1929;25
19.08.1929;29
20.08.1929;29
21.08.1929;16
22.08.1929;19
23.08.1929;11
24.08.1929;20
25.08.1929;19
26.08.1929;28
27.08.1929;32
28.08.1929;39
29.08.1929;41
30.08.1929;40
31.08.1929;39
01.09.1929;40
02.09.1929;38
03.09.1929;28
04.09.1929;21
05.09.1929;18
06.09.1929;17
07.09.1929;23
08.09.1929;42
09.09.1929;50
10.09.1929;50
11.09.1929;60
12.09.1929;57
13.09.1929;61
14.09.1929;55
15.09.1929;52
16.09.1929;56
17.09.1929;49
18.09.1929;46
19.09.1929;42
20.09.1929;47
21.09.1929;36
22.09.1929;41
23.09.1929;43
24.09.1929;39
25.09.1929;43
26.09.1929;46
27.09.1929;37
28.09.1929;42
29.09.1929;40
30.09.1929;43
01.10.1929;37
02.10.1929;37
03.10.1929;43
04.10.1929;53
05.10.1929;57
06.10.1929;67
07.10.1929;70
08.10.1929;62
09.10.1929;61
10.10.1929;59
11.10.1929;59
12.10.1929;71
13.10.1929;78
14.10.1929;88
15.10.1929;108
16.10.1929;126
17.10.1929;113
18.10.1929;109
19.10.1929;102
20.10.1929;101
21.10.1929;125
22.10.1929;129
23.10.1929;130
24.10.1929;127
25.10.1929;116
26.10.1929;101
27.10.1929;94
28.10.1929;88
29.10.1929;87
30.10.1929;88
31.10.1929;91
01.11.1929;89
02.11.1929;87
03.11.1929;90
04.11.1929;89
05.11.1929;91
06.11.1929;96
07.11.1929;100
08.11.1929;102
09.11.1929;100
10.11.1929;98
11.11.1929;95
12.11.1929;94
13.11.1929;92
14.11.1929;103
15.11.1929;134
16.11.1929;129
17.11.1929;125
18.11.1929;123
19.11.1929;133
20.11.1929;139
21.11.1929;134
22.11.1929;131
23.11.1929;122
24.11.1929;114
25.11.1929;107
26.11.1929;103
27.11.1929;102
28.11.1929;103
29.11.1929;106
30.11.1929;112
01.12.1929;133
02.12.1929;134
03.12.1929;132
04.12.1929;129
05.12.1929;121
06.12.1929;110
07.12.1929;104
08.12.1929;105
09.12.1929;89
10.12.1929;85
11.12.1929;83
12.12.1929;79
13.12.1929;78
14.12.1929;77
15.12.1929;99
16.12.1929;98
17.12.1929;98
18.12.1929;97
19.12.1929;93
20.12.1929;84
21.12.1929;81
22.12.1929;80
23.12.1929;76
24.12.1929;61
25.12.1929;57
26.12.1929;55
27.12.1929;54
28.12.1929;53
29.12.1929;52
30.12.1929;50
31.12.1929;52
01.01.1930;90
02.01.1930;113
03.01.1930;115
04.01.1930;126
05.01.1930;161
06.01.1930;165
07.01.1930;158
08.01.1930;153
09.01.1930;145
10.01.1930;136
11.01.1930;125
12.01.1930;112
13.01.1930;99
14.01.1930;95
15.01.1930;90
16.01.1930;91
17.01.1930;88
18.01.1930;86
19.01.1930;84
20.01.1930;78
21.01.1930;67
22.01.1930;62
23.01.1930;48
24.01.1930;53
25.01.1930;63
26.01.1930;59
27.01.1930;54
28.01.1930;51
29.01.1930;45
30.01.1930;28
31.01.1930;22
01.02.1930;19
02.02.1930;17
03.02.1930;16
04.02.1930;15
05.02.1930;16
06.02.1930;25
07.02.1930;28
08.02.1930;30
09.02.1930;30
10.02.1930;32
11.02.1930;31
12.02.1930;28
13.02.1930;26
14.02.1930;32
15.02.1930;38
16.02.1930;42
17.02.1930;44
18.02.1930;45
19.02.1930;46
20.02.1930;49
21.02.1930;47
22.02.1930;49
23.02.1930;48
24.02.1930;47
25.02.1930;46
26.02.1930;44
27.02.1930;43
28.02.1930;40
01.03.1930;38
02.03.1930;40
03.03.1930;49
04.03.1930;70
05.03.1930;73
06.03.1930;74
07.03.1930;76
08.03.1930;79
09.03.1930;105
10.03.1930;123
11.03.1930;145
12.03.1930;131
13.03.1930;113
14.03.1930;98
15.03.1930;93
16.03.1930;98
17.03.1930;96
18.03.1930;82
19.03.1930;68
20.03.1930;62
21.03.1930;70
22.03.1930;88
23.03.1930;108
24.03.1930;115
25.03.1930;119
26.03.1930;122
27.03.1930;119
28.03.1930;108
29.03.1930;100
30.03.1930;88
31.03.1930;80
01.04.1930;70
02.04.1930;61
03.04.1930;56
04.04.1930;50
05.04.1930;48
06.04.1930;48
07.04.1930;48
08.04.1930;48
09.04.1930;48
10.04.1930;47
11.04.1930;47
12.04.1930;43
13.04.1930;44
14.04.1930;46
15.04.1930;39
16.04.1930;47
17.04.1930;37
18.04.1930;46
19.04.1930;67
20.04.1930;81
21.04.1930;78
22.04.1930;75
23.04.1930;61
24.04.1930;53
25.04.1930;41
26.04.1930;37
27.04.1930;32
28.04.1930;25
29.04.1930;18
30.04.1930;22
01.05.1930;20
02.05.1930;18
03.05.1930;7
04.05.1930;-1
05.05.1930;-2
06.05.1930;-3
07.05.1930;-8
08.05.1930;-17
09.05.1930;0
10.05.1930;-2
11.05.1930;4
12.05.1930;13
13.05.1930;24
14.05.1930;3
15.05.1930;-14
16.05.1930;-18
17.05.1930;-4
18.05.1930;-12
19.05.1930;-20
20.05.1930;-21
21.05.1930;-18
22.05.1930;-19
23.05.1930;-15
24.05.1930;-6
25.05.1930;3
26.05.1930;11
27.05.1930;5
28.05.1930;43
29.05.1930;120
30.05.1930;105
31.05.1930;110
01.06.1930;99
02.06.1930;95
03.06.1930;91
04.06.1930;81
05.06.1930;74
06.06.1930;65
07.06.1930;56
08.06.1930;50
09.06.1930;40
10.06.1930;35
11.06.1930;31
12.06.1930;20
13.06.1930;12
14.06.1930;6
15.06.1930;-12
16.06.1930;-3
17.06.1930;-9
18.06.1930;-12
19.06.1930;-9
20.06.1930;-8
21.06.1930;-18
22.06.1930;-21
23.06.1930;-20
24.06.1930;-8
25.06.1930;-8
26.06.1930;-12
27.06.1930;-13
28.06.1930;-14
29.06.1930;-11
30.06.1930;-2
01.07.1930;1
02.07.1930;10
03.07.1930;2
04.07.1930;5
05.07.1930;6
06.07.1930;-3
07.07.1930;4
08.07.1930;3
09.07.1930;10
10.07.1930;24
11.07.1930;27
12.07.1930;27
13.07.1930;28
14.07.1930;19
15.07.1930;18
16.07.1930;14
17.07.1930;9
18.07.1930;11
19.07.1930;6
20.07.1930;7
21.07.1930;19
22.07.1930;22
23.07.1930;22
24.07.1930;21
25.07.1930;21
26.07.1930;23
27.07.1930;45
28.07.1930;58
29.07.1930;69
30.07.1930;62
31.07.1930;55
01.08.1930;54
02.08.1930;55
03.08.1930;51
04.08.1930;55
05.08.1930;46
06.08.1930;47
07.08.1930;45
08.08.1930;50
09.08.1930;59
10.08.1930;73
11.08.1930;90
12.08.1930;179
13.08.1930;168
14.08.1930;154
15.08.1930;157
16.08.1930;154
17.08.1930;182
18.08.1930;198
19.08.1930;184
20.08.1930;178
21.08.1930;182
22.08.1930;207
23.08.1930;215
24.08.1930;204
25.08.1930;184
26.08.1930;172
27.08.1930;154
28.08.1930;137
29.08.1930;124
30.08.1930;116
31.08.1930;104
01.09.1930;96
02.09.1930;87
03.09.1930;76
04.09.1930;66
05.09.1930;60
06.09.1930;55
07.09.1930;51
08.09.1930;51
09.09.1930;64
10.09.1930;61
11.09.1930;60
12.09.1930;55
13.09.1930;55
14.09.1930;51
15.09.1930;49
16.09.1930;49
17.09.1930;47
18.09.1930;44
19.09.1930;45
20.09.1930;40
21.09.1930;44
22.09.1930;46
23.09.1930;51
24.09.1930;47
25.09.1930;46
26.09.1930;45
27.09.1930;44
28.09.1930;45
29.09.1930;43
30.09.1930;51
01.10.1930;46
02.10.1930;44
03.10.1930;45
04.10.1930;51
05.10.1930;47
06.10.1930;66
07.10.1930;57
08.10.1930;55
09.10.1930;72
10.10.1930;109
11.10.1930;124
12.10.1930;125
13.10.1930;123
14.10.1930;120
15.10.1930;119
16.10.1930;123
17.10.1930;119
18.10.1930;118
19.10.1930;111
20.10.1930;107
21.10.1930;102
22.10.1930;99
23.10.1930;95
24.10.1930;85
25.10.1930;85
26.10.1930;91
27.10.1930;98
28.10.1930;96
29.10.1930;95
30.10.1930;93
31.10.1930;92
01.11.1930;92
02.11.1930;96
03.11.1930;99
04.11.1930;106
05.11.1930;140
06.11.1930;190
07.11.1930;264
08.11.1930;270
09.11.1930;291
10.11.1930;297
11.11.1930;282
12.11.1930;266
13.11.1930;247
14.11.1930;240
15.11.1930;231
16.11.1930;239
17.11.1930;227
18.11.1930;217
19.11.1930;231
20.11.1930;231
21.11.1930;224
22.11.1930;207
23.11.1930;192
24.11.1930;173
25.11.1930;162
26.11.1930;167
27.11.1930;159
28.11.1930;167
29.11.1930;169
30.11.1930;166
01.12.1930;140
02.12.1930;114
03.12.1930;115
04.12.1930;116
05.12.1930;113
06.12.1930;110
07.12.1930;105
08.12.1930;97
09.12.1930;94
10.12.1930;88
11.12.1930;77
12.12.1930;64
13.12.1930;91
14.12.1930;47
15.12.1930;29
16.12.1930;25
17.12.1930;30
18.12.1930;31
19.12.1930;33
20.12.1930;26
21.12.1930;30
22.12.1930;48
23.12.1930;58
24.12.1930;52
25.12.1930;52
26.12.1930;47
27.12.1930;42
28.12.1930;38
29.12.1930;29
30.12.1930;24
31.12.1930;22
01.01.1931;16
02.01.1931;17
03.01.1931;16
04.01.1931;15
05.01.1931;18
06.01.1931;17
07.01.1931;20
08.01.1931;21
09.01.1931;22
10.01.1931;24
11.01.1931;21
12.01.1931;25
13.01.1931;29
14.01.1931;27
15.01.1931;26
16.01.1931;28
17.01.1931;30
18.01.1931;33
19.01.1931;26
20.01.1931;27
21.01.1931;30
22.01.1931;34
23.01.1931;38
24.01.1931;31
25.01.1931;30
26.01.1931;29
27.01.1931;26
28.01.1931;25
29.01.1931;27
30.01.1931;26
31.01.1931;24
01.02.1931;20
02.02.1931;22
03.02.1931;23
04.02.1931;25
05.02.1931;24
06.02.1931;26
07.02.1931;28
08.02.1931;30
09.02.1931;29
10.02.1931;29
11.02.1931;25
12.02.1931;24
13.02.1931;22
14.02.1931;20
15.02.1931;20
16.02.1931;23
17.02.1931;22
18.02.1931;24
19.02.1931;22
20.02.1931;20
21.02.1931;20
22.02.1931;21
23.02.1931;23
24.02.1931;23
25.02.1931;25
26.02.1931;27
27.02.1931;26
28.02.1931;24
01.03.1931;25
02.03.1931;28
03.03.1931;26
04.03.1931;30
05.03.1931;27
06.03.1931;25
07.03.1931;26
08.03.1931;25
09.03.1931;27
10.03.1931;23
11.03.1931;24
12.03.1931;23
13.03.1931;21
14.03.1931;23
15.03.1931;27
16.03.1931;26
17.03.1931;28
18.03.1931;25
19.03.1931;24
20.03.1931;20
21.03.1931;22
22.03.1931;21
23.03.1931;24
24.03.1931;25
25.03.1931;28
26.03.1931;31
27.03.1931;29
28.03.1931;30
29.03.1931;36
30.03.1931;31
31.03.1931;30
01.04.1931;32
02.04.1931;38
03.04.1931;37
04.04.1931;35
05.04.1931;33
06.04.1931;35
07.04.1931;39
08.04.1931;40
09.04.1931;38
10.04.1931;37
11.04.1931;38
12.04.1931;40
13.04.1931;46
14.04.1931;49
15.04.1931;51
16.04.1931;54
17.04.1931;58
18.04.1931;67
19.04.1931;101
20.04.1931;190
21.04.1931;267
22.04.1931;344
23.04.1931;425
24.04.1931;484
25.04.1931;494
26.04.1931;470
27.04.1931;444
28.04.1931;421
29.04.1931;390
30.04.1931;355
01.05.1931;321
02.05.1931;292
03.05.1931;257
04.05.1931;238
05.05.1931;217
06.05.1931;195
07.05.1931;153
08.05.1931;124
09.05.1931;111
10.05.1931;88
11.05.1931;74
12.05.1931;58
13.05.1931;48
14.05.1931;42
15.05.1931;37
16.05.1931;38
17.05.1931;38
18.05.1931;38
19.05.1931;37
20.05.1931;28
21.05.1931;31
22.05.1931;34
23.05.1931;35
24.05.1931;40
25.05.1931;44
26.05.1931;49
27.05.1931;49
28.05.1931;43
29.05.1931;33
30.05.1931;28
31.05.1931;23
01.06.1931;22
02.06.1931;26
03.06.1931;24
04.06.1931;23
05.06.1931;24
06.06.1931;34
07.06.1931;41
08.06.1931;47
09.06.1931;50
10.06.1931;41
11.06.1931;32
12.06.1931;33
13.06.1931;29
14.06.1931;25
15.06.1931;30
16.06.1931;28
17.06.1931;23
18.06.1931;19
19.06.1931;13
20.06.1931;6
21.06.1931;15
22.06.1931;15
23.06.1931;20
24.06.1931;23
25.06.1931;20
26.06.1931;32
27.06.1931;26
28.06.1931;19
29.06.1931;6
30.06.1931;8
01.07.1931;8
02.07.1931;7
03.07.1931;2
04.07.1931;2
05.07.1931;-5
06.07.1931;-2
07.07.1931;4
08.07.1931;5
09.07.1931;4
10.07.1931;4
11.07.1931;4
12.07.1931;-1
13.07.1931;0
14.07.1931;1
15.07.1931;0
16.07.1931;2
17.07.1931;3
18.07.1931;7
19.07.1931;-2
20.07.1931;13
21.07.1931;27
22.07.1931;33
23.07.1931;30
24.07.1931;27
25.07.1931;24
26.07.1931;5
27.07.1931;22
28.07.1931;25
29.07.1931;26
30.07.1931;27
31.07.1931;10
01.08.1931;0
02.08.1931;1
03.08.1931;16
04.08.1931;16
05.08.1931;18
06.08.1931;21
07.08.1931;17
08.08.1931;14
09.08.1931;14
10.08.1931;2
11.08.1931;0
12.08.1931;-3
13.08.1931;-3
14.08.1931;-4
15.08.1931;-3
16.08.1931;-11
17.08.1931;-15
18.08.1931;-8
19.08.1931;-10
20.08.1931;-11
21.08.1931;0
22.08.1931;10
23.08.1931;13
24.08.1931;14
25.08.1931;24
26.08.1931;27
27.08.1931;28
28.08.1931;31
29.08.1931;36
30.08.1931;48
31.08.1931;48
01.09.1931;39
02.09.1931;30
03.09.1931;29
04.09.1931;28
05.09.1931;30
06.09.1931;53
07.09.1931;73
08.09.1931;72
09.09.1931;71
10.09.1931;80
11.09.1931;91
12.09.1931;89
13.09.1931;91
14.09.1931;96
15.09.1931;96
16.09.1931;96
17.09.1931;96
18.09.1931;91
19.09.1931;84
20.09.1931;78
21.09.1931;78
22.09.1931;71
23.09.1931;75
24.09.1931;73
25.09.1931;68
26.09.1931;65
27.09.1931;64
28.09.1931;63
29.09.1931;57
30.09.1931;59
01.10.1931;61
02.10.1931;56
03.10.1931;54
04.10.1931;58
05.10.1931;57
06.10.1931;55
07.10.1931;55
08.10.1931;54
09.10.1931;52
10.10.1931;59
11.10.1931;63
12.10.1931;64
13.10.1931;63
14.10.1931;62
15.10.1931;63
16.10.1931;66
17.10.1931;62
18.10.1931;57
19.10.1931;60
20.10.1931;99
21.10.1931;128
22.10.1931;118
23.10.1931;128
24.10.1931;158
25.10.1931;163
26.10.1931;156
27.10.1931;155
28.10.1931;146
29.10.1931;136
30.10.1931;122
31.10.1931;118
01.11.1931;111
02.11.1931;105
03.11.1931;106
04.11.1931;112
05.11.1931;112
06.11.1931;111
07.11.1931;108
08.11.1931;106
09.11.1931;100
10.11.1931;96
11.11.1931;93
12.11.1931;108
13.11.1931;110
14.11.1931;119
15.11.1931;119
16.11.1931;119
17.11.1931;126
18.11.1931;129
19.11.1931;127
20.11.1931;121
21.11.1931;113
22.11.1931;105
23.11.1931;127
24.11.1931;133
25.11.1931;104
26.11.1931;87
27.11.1931;82
28.11.1931;85
29.11.1931;29
30.11.1931;35
01.12.1931;51
02.12.1931;46
03.12.1931;38
04.12.1931;36
05.12.1931;33
06.12.1931;30
07.12.1931;27
08.12.1931;26
09.12.1931;29
10.12.1931;32
11.12.1931;29
12.12.1931;28
13.12.1931;29
14.12.1931;36
15.12.1931;38
16.12.1931;39
17.12.1931;36
18.12.1931;37
19.12.1931;38
20.12.1931;40
21.12.1931;42
22.12.1931;43
23.12.1931;46
24.12.1931;56
25.12.1931;62
26.12.1931;65
27.12.1931;66
28.12.1931;69
29.12.1931;64
30.12.1931;60
31.12.1931;59
01.01.1932;57
02.01.1932;62
03.01.1932;60
04.01.1932;59
05.01.1932;54
06.01.1932;56
07.01.1932;63
08.01.1932;98
09.01.1932;107
10.01.1932;105
11.01.1932;108
12.01.1932;104
13.01.1932;101
14.01.1932;97
15.01.1932;96
16.01.1932;109
17.01.1932;114
18.01.1932;120
19.01.1932;165
20.01.1932;256
21.01.1932;273
22.01.1932;310
23.01.1932;314
24.01.1932;287
25.01.1932;277
26.01.1932;273
27.01.1932;248
28.01.1932;233
29.01.1932;222
30.01.1932;197
31.01.1932;149
01.02.1932;135
02.02.1932;125
03.02.1932;119
04.02.1932;114
05.02.1932;109
06.02.1932;103
07.02.1932;97
08.02.1932;91
09.02.1932;85
10.02.1932;80
11.02.1932;79
12.02.1932;80
13.02.1932;77
14.02.1932;75
15.02.1932;72
16.02.1932;71
17.02.1932;68
18.02.1932;64
19.02.1932;64
20.02.1932;65
21.02.1932;66
22.02.1932;64
23.02.1932;63
24.02.1932;62
25.02.1932;60
26.02.1932;59
27.02.1932;60
28.02.1932;57
29.02.1932;58
01.03.1932;53
02.03.1932;56
03.03.1932;57
04.03.1932;53
05.03.1932;54
06.03.1932;56
07.03.1932;53
08.03.1932;50
09.03.1932;52
10.03.1932;50
11.03.1932;44
12.03.1932;40
13.03.1932;42
14.03.1932;43
15.03.1932;41
16.03.1932;38
17.03.1932;35
18.03.1932;32
19.03.1932;43
20.03.1932;36
21.03.1932;40
22.03.1932;39
23.03.1932;36
24.03.1932;43
25.03.1932;41
26.03.1932;38
27.03.1932;33
28.03.1932;31
29.03.1932;29
30.03.1932;61
31.03.1932;45
01.04.1932;44
02.04.1932;45
03.04.1932;57
04.04.1932;83
05.04.1932;151
06.04.1932;252
07.04.1932;274
08.04.1932;329
09.04.1932;351
10.04.1932;365
11.04.1932;398
12.04.1932;422
13.04.1932;432
14.04.1932;410
15.04.1932;385
16.04.1932;363
17.04.1932;328
18.04.1932;293
19.04.1932;258
20.04.1932;208
21.04.1932;157
22.04.1932;129
23.04.1932;109
24.04.1932;99
25.04.1932;90
26.04.1932;87
27.04.1932;82
28.04.1932;69
29.04.1932;60
30.04.1932;65
01.05.1932;60
02.05.1932;64
03.05.1932;52
04.05.1932;50
05.05.1932;60
06.05.1932;77
07.05.1932;76
08.05.1932;73
09.05.1932;69
10.05.1932;98
11.05.1932;142
12.05.1932;148
13.05.1932;142
14.05.1932;132
15.05.1932;121
16.05.1932;105
17.05.1932;88
18.05.1932;75
19.05.1932;55
20.05.1932;52
21.05.1932;46
22.05.1932;43
23.05.1932;41
24.05.1932;43
25.05.1932;42
26.05.1932;44
27.05.1932;81
28.05.1932;85
29.05.1932;77
30.05.1932;66
31.05.1932;57
01.06.1932;50
02.06.1932;55
03.06.1932;44
04.06.1932;38
05.06.1932;34
06.06.1932;33
07.06.1932;29
08.06.1932;25
09.06.1932;22
10.06.1932;20
11.06.1932;14
12.06.1932;8
13.06.1932;30
14.06.1932;27
15.06.1932;22
16.06.1932;22
17.06.1932;16
18.06.1932;9
19.06.1932;9
20.06.1932;12
21.06.1932;8
22.06.1932;8
23.06.1932;14
24.06.1932;20
25.06.1932;30
26.06.1932;37
27.06.1932;35
28.06.1932;34
29.06.1932;32
30.06.1932;22
01.07.1932;18
02.07.1932;12
03.07.1932;11
04.07.1932;10
05.07.1932;0
06.07.1932;-5
07.07.1932;-8
08.07.1932;-12
09.07.1932;-11
10.07.1932;-4
11.07.1932;-4
12.07.1932;-13
13.07.1932;-13
14.07.1932;-12
15.07.1932;-19
16.07.1932;-19
17.07.1932;-24
18.07.1932;-15
19.07.1932;-10
20.07.1932;-17
21.07.1932;-13
22.07.1932;-13
23.07.1932;-13
24.07.1932;-10
25.07.1932;-8
26.07.1932;-8
27.07.1932;-3
28.07.1932;-2
29.07.1932;-6
30.07.1932;-7
31.07.1932;-2
01.08.1932;5
02.08.1932;13
03.08.1932;16
04.08.1932;16
05.08.1932;15
06.08.1932;18
07.08.1932;9
08.08.1932;13
09.08.1932;15
10.08.1932;25
11.08.1932;36
12.08.1932;56
13.08.1932;57
14.08.1932;52
15.08.1932;38
16.08.1932;39
17.08.1932;38
18.08.1932;39
19.08.1932;36
20.08.1932;29
21.08.1932;23
22.08.1932;23
23.08.1932;22